Погода в Титове

Россия / Тверская область     56°51′52″N   37°26′13″E
темп.,
°C
ветер,
м/с
пор.,
м/с
влажн.,
%
обл.,
%
осадки,
мм/ч
давл.,
гПа
погр.,
м
16 июня, ср
ср1600:00+15зсз229310 0.1 101027
03:00+13ссз39921 0.1 1011178
06:00+14ссз389144 0.0 1011274
09:00+16сз368693 0.0 1013442
12:00+22с56420 0.1 10131903
15:00+23с46347 0.1 10142200
18:00+21с36435 0.0 10152035
21:00+15с11690 0.0 101711
17 июня, чт
чт1700:00+12сз22755 0.0 101933
03:00+11ссз227595 0.0 102125
06:00+13с24685 0.0 1023139
09:00+19с11445 0.0 1024652
12:00+22ссз24375 0.0 10241856
15:00+24сз34357 0.0 10242255
18:00+23зсз24455 0.0 10242070
21:00+16юз11700 0.0 102511
18 июня, пт
пт1800:00+14зюз22740 0.0 102626
03:00+13зюз228660 0.0 102726
06:00+16юз24786 0.0 1027121
09:00+22зюз245560 0.0 1027601
12:00+25зюз34405 0.0 10261750
15:00+27зюз34385 0.0 10252015
18:00+25зюз35490 0.0 10251205
21:00+19юз36750 0.0 1025110
19 июня, сб
сб1900:00+17юз388424 0.0 1026145
03:00+15юз3108711 0.0 1026221
06:00+17юз39810 0.0 1027248
09:00+23зюз35605 0.0 1026659
12:00+27юз34465 0.0 10251583
15:00+28юз45420 0.0 10241872
18:00+27зюз34511 0.0 10231388
21:00+20юз35766 0.0 102471
20 июня, вс
вс2000:00+17юз368265 0.0 102492
03:00+15юз279110 0.0 1025121
06:00+17юз27815 0.0 1025203
09:00+23юз3458100 0.0 1025645
12:00+27ююз35420 0.0 10241441
15:00+28ююз45360 0.0 10221738
18:00+27ююз35450 0.0 10211118
21:00+20юз22750 0.0 102230